Change the Weather History Date:

Thursday, March 5, 2015

  Actual Average Record
Temperature  
Mean Temperature 10 °F -  
Max Temperature 17 °F 44 °F 73 °F (1983)
Min Temperature 3 °F 26 °F 3 °F (2015)
Degree Days  
Heating Degree Days 55    
Moisture  
Dew Point 1 °F    
Average Humidity 58    
Maximum Humidity 78    
Minimum Humidity 45    
Precipitation  
Precipitation 0.00 in - - ()
Sea Level Pressure  
Sea Level Pressure 30.38 in    
Wind  
Wind Speed 6 mph (NW)    
Max Wind Speed 13 mph    
Max Gust Speed 18 mph    
Visibility 10 miles    
Events      
Averages and records for this station are not official NWS values.
T = Trace of Precipitation, MM = Missing Value Source: NWS Daily Summary

Daily Weather History Graph

Daily Weather History Graph

Search for Another Location

Airport or City:

Trip Planner

Search our weather history database for the weather conditions in past years. The results will help you decide how hot, cold, wet, or windy it might be!

Date:

Astronomy

Mar. 05, 2015 Rise Set
Actual Time 7:02 AM EST 6:28 PM EST
Civil Twilight 6:34 AM EST 6:56 PM EST
Nautical Twilight 6:02 AM EST 7:28 PM EST
Astronomical Twilight 5:30 AM EST 8:01 PM EST
Moon 6:40 PM EST (3/5) 6:47 AM EST (3/5)
Length of Visible Light 12h 21m
Length of Day
11h 25m
Full, 100% of the Moon is Illuminated
Mar 5
Full
Mar 5
Full
Mar 13
Last Quarter
Mar 20
New
Mar 27
First Quarter

Hourly Weather History & Observations

Time (EST) Temp. Windchill Dew Point Humidity Pressure Visibility Wind Dir Wind Speed Gust Speed Precip Events Conditions
12:10 AM 17.6 °F 6.4 °F 1.4 °F 49% 30.23 in 10.0 mi NNW 9.2 mph - N/A   Clear
12:35 AM 17.6 °F 5.7 °F -0.4 °F 45% 30.24 in 10.0 mi North 10.4 mph - N/A   Clear
12:42 AM 15.8 °F 3.4 °F 1.4 °F 53% 30.25 in 10.0 mi NNW 10.4 mph - N/A   Clear
12:52 AM 15.8 °F 2.7 °F 1.4 °F 53% 30.26 in 10.0 mi NNW 11.5 mph - N/A   Clear
1:12 AM 15.8 °F 3.4 °F -0.4 °F 49% 30.27 in 10.0 mi NNW 10.4 mph 18.4 mph N/A   Clear
1:25 AM 15.8 °F 5.1 °F 1.4 °F 53% 30.26 in 10.0 mi NNW 8.1 mph - N/A   Clear
1:42 AM 15.8 °F 3.4 °F 1.4 °F 53% 30.26 in 10.0 mi North 10.4 mph - N/A   Clear
2:12 AM 15.8 °F 2.1 °F -0.4 °F 49% 30.27 in 10.0 mi NNW 12.7 mph 17.3 mph N/A   Clear
2:32 AM 15.8 °F 3.4 °F -0.4 °F 49% 30.27 in 10.0 mi North 10.4 mph 17.3 mph N/A   Clear
2:53 AM 15.8 °F 3.4 °F 1.4 °F 53% 30.28 in 10.0 mi North 10.4 mph - N/A   Clear
3:03 AM 15.8 °F 8.6 °F -0.4 °F 49% 30.28 in 10.0 mi North 4.6 mph - N/A   Clear
3:23 AM 14.0 °F 2.9 °F -0.4 °F 53% 30.28 in 10.0 mi North 8.1 mph - N/A   Clear
4:15 AM 12.2 °F - 1.4 °F 62% 30.29 in 10.0 mi Calm Calm - N/A   Clear
4:35 AM 12.2 °F - 1.4 °F 62% 30.29 in 10.0 mi North 2.3 mph - N/A   Clear
4:38 AM 12.2 °F - 1.4 °F 62% 30.30 in 10.0 mi Calm Calm - N/A   Clear
4:53 AM 12.2 °F - 1.4 °F 62% 30.30 in 10.0 mi Calm Calm - N/A   Clear
5:13 AM 12.2 °F 6.1 °F 1.4 °F 62% 30.31 in 10.0 mi NNW 3.5 mph - N/A   Clear
5:33 AM 12.2 °F 4.3 °F 1.4 °F 62% 30.29 in 10.0 mi North 4.6 mph - N/A   Clear
5:53 AM 12.2 °F - 1.4 °F 62% 30.31 in 10.0 mi Calm Calm - N/A   Clear
6:13 AM 10.4 °F 2.2 °F 1.4 °F 67% 30.32 in 10.0 mi NNW 4.6 mph - N/A   Clear
6:34 AM 10.4 °F - 1.4 °F 67% 30.31 in 10.0 mi Calm Calm - N/A   Clear
6:54 AM 8.6 °F - 1.4 °F 73% 30.31 in 10.0 mi Calm Calm - N/A   Clear
7:14 AM 10.4 °F - 1.4 °F 67% 30.34 in 10.0 mi Calm Calm - N/A   Clear
7:34 AM 10.4 °F - 1.4 °F 67% 30.35 in 10.0 mi Calm Calm - N/A   Clear
7:54 AM 10.4 °F 2.2 °F 1.4 °F 67% 30.34 in 10.0 mi North 4.6 mph - N/A   Clear
8:14 AM 10.4 °F - 1.4 °F 67% 30.36 in 10.0 mi Calm Calm - N/A   Clear
8:34 AM 10.4 °F - 1.4 °F 67% 30.37 in 10.0 mi Calm Calm - N/A   Clear
8:43 AM 10.4 °F -0.4 °F 1.4 °F 67% 30.35 in 10.0 mi NNE 6.9 mph - N/A   Clear
9:14 AM 12.2 °F 2.9 °F 1.4 °F 62% 30.36 in 10.0 mi NE 5.8 mph - N/A   Clear
9:34 AM 12.2 °F - 1.4 °F 62% 30.38 in 10.0 mi Calm Calm - N/A   Clear
9:48 AM 12.2 °F - 1.4 °F 62% 30.40 in 10.0 mi Calm Calm - N/A   Clear
10:15 AM 12.2 °F - 1.4 °F 62% 30.40 in 10.0 mi Calm Calm - N/A   Clear
10:35 AM 12.2 °F - 1.4 °F 62% 30.39 in 10.0 mi Calm Calm - N/A   Clear
10:55 AM 14.0 °F 5.1 °F 1.4 °F 57% 30.37 in 10.0 mi North 5.8 mph - N/A   Clear
11:15 AM 15.8 °F 6.1 °F 1.4 °F 53% 30.38 in 10.0 mi NNW 6.9 mph - N/A   Clear
11:35 AM 15.8 °F - 1.4 °F 53% 30.38 in 10.0 mi Calm Calm - N/A   Clear
11:53 AM 15.8 °F 5.1 °F 1.4 °F 53% 30.39 in 10.0 mi NW 8.1 mph - N/A   Clear
12:14 PM 15.8 °F 7.2 °F 1.4 °F 53% 30.39 in 10.0 mi NW 5.8 mph - N/A   Clear
12:35 PM 17.6 °F - 1.4 °F 49% 30.39 in 10.0 mi NNW 2.3 mph - N/A   Clear
12:40 PM 15.8 °F - 1.4 °F 53% 30.39 in 10.0 mi Calm Calm - N/A   Clear
12:55 PM 17.6 °F 5.7 °F 1.4 °F 49% 30.39 in 10.0 mi NNW 10.4 mph - N/A   Clear
1:15 PM 17.6 °F 12.3 °F 1.4 °F 49% 30.38 in 10.0 mi NNW 3.5 mph - N/A   Scattered Clouds
1:36 PM 17.6 °F 9.3 °F 1.4 °F 49% 30.38 in 10.0 mi West 5.8 mph - N/A   Mostly Cloudy
1:56 PM 17.6 °F 6.4 °F 3.2 °F 53% 30.38 in 10.0 mi West 9.2 mph - N/A   Mostly Cloudy
2:16 PM 17.6 °F 6.4 °F 1.4 °F 49% 30.38 in 10.0 mi WNW 9.2 mph - N/A   Mostly Cloudy
2:36 PM 17.6 °F 6.4 °F -0.4 °F 45% 30.38 in 10.0 mi NW 9.2 mph - N/A   Scattered Clouds
2:56 PM 17.6 °F 6.4 °F -0.4 °F 45% 30.38 in 10.0 mi West 9.2 mph - N/A   Clear
3:16 PM 17.6 °F 5.7 °F 1.4 °F 49% 30.39 in 10.0 mi West 10.4 mph - N/A   Clear
3:36 PM 17.6 °F 7.3 °F 1.4 °F 49% 30.39 in 10.0 mi WNW 8.1 mph - N/A   Clear
3:56 PM 17.6 °F 4.3 °F 1.4 °F 49% 30.39 in 10.0 mi West 12.7 mph - N/A   Clear
4:16 PM 17.6 °F 6.4 °F 1.4 °F 49% 30.40 in 10.0 mi WNW 9.2 mph - N/A   Clear
4:31 PM 17.6 °F - 1.4 °F 49% 30.41 in 10.0 mi Calm Calm - N/A   Clear
4:52 PM 17.6 °F 6.4 °F 1.4 °F 49% 30.41 in 10.0 mi WNW 9.2 mph - N/A   Clear
5:12 PM 17.6 °F 7.3 °F 1.4 °F 49% 30.42 in 10.0 mi WNW 8.1 mph - N/A   Clear
5:32 PM 17.6 °F 6.4 °F 1.4 °F 49% 30.43 in 10.0 mi West 9.2 mph - N/A   Clear
5:45 PM 17.6 °F 8.2 °F 1.4 °F 49% 30.43 in 10.0 mi West 6.9 mph - N/A   Clear
5:55 PM 15.8 °F 5.1 °F 1.4 °F 53% 30.44 in 10.0 mi WNW 8.1 mph - N/A   Clear
6:31 PM 15.8 °F - -0.4 °F 49% 30.46 in 10.0 mi Calm Calm - N/A   Clear
6:52 PM 14.0 °F - -0.4 °F 53% 30.47 in 10.0 mi Calm Calm - N/A   Clear
7:12 PM 12.2 °F - -0.4 °F 57% 30.47 in 10.0 mi Calm Calm - N/A   Clear
7:22 PM 10.4 °F - -0.4 °F 62% 30.47 in 10.0 mi Calm Calm - N/A   Clear
7:52 PM 10.4 °F - -0.4 °F 62% 30.47 in 10.0 mi Calm Calm - N/A   Clear
8:13 PM 10.4 °F - -0.4 °F 62% 30.48 in 10.0 mi Calm Calm - N/A   Clear
8:32 PM 10.4 °F - -0.4 °F 62% 30.48 in 10.0 mi Calm Calm - N/A   Clear
8:53 PM 6.8 °F - -2.2 °F 67% 30.49 in 10.0 mi Calm Calm - N/A   Clear
9:13 PM 6.8 °F - -0.4 °F 72% 30.49 in 10.0 mi Calm Calm - N/A   Clear
9:33 PM 6.8 °F - -0.4 °F 72% 30.49 in 10.0 mi Calm Calm - N/A   Clear
9:53 PM 6.8 °F - -0.4 °F 72% 30.49 in 10.0 mi Calm Calm - N/A   Clear
10:13 PM 6.8 °F - -0.4 °F 72% 30.50 in 10.0 mi Calm Calm - N/A   Clear
10:33 PM 6.8 °F - -0.4 °F 72% 30.50 in 10.0 mi Calm Calm - N/A   Clear
10:53 PM 6.8 °F - -0.4 °F 72% 30.50 in 10.0 mi Calm Calm - N/A   Clear
10:56 PM 5.0 °F - -0.4 °F 78% 30.51 in 10.0 mi Calm Calm - N/A   Clear
11:34 PM 3.2 °F - -2.2 °F 78% 30.50 in 10.0 mi Calm Calm - N/A   Clear
11:49 PM 3.2 °F - -2.2 °F 78% 30.50 in 10.0 mi Calm Calm - N/A   Clear